Gainesville, GA

7:45 PM EST on December 12, 2019 (GMT -0500)
Gilmer Memorial

Weather History for KGVL - August, 2019

Change the Weather History Date:

Thursday, August 29, 2019

  Actual Average Record
Temperature  
Mean Temperature 73 °F 77 °F  
Max Temperature 85 °F 86 °F 95 °F (1930)
Min Temperature 61 °F 68 °F 52 °F (1942)
Cooling Degree Days 8 12  
Month to date cooling degree days 414 384  
Year to date cooling degree days 1487 1306  
Since 1 June cooling degree days 1151 1131  
Growing Degree Days 23 (Base 50)    
Moisture  
Dew Point 59 °F    
Average Humidity 65    
Maximum Humidity 93    
Minimum Humidity 37    
Precipitation  
Precipitation T in 0.11 in 2.98 in (1940)
Month to date precipitation 2.47 4.19  
Year to date precipitation 37.31 36.01  
Sea Level Pressure  
Sea Level Pressure 30.05 in    
Wind  
Wind Speed 3 mph (NNE)    
Max Wind Speed 9 mph    
Max Gust Speed 13 mph    
Visibility 10 miles    
Events Rain    
T = Trace of Precipitation, MM = Missing Value Source: NWS Daily Summary

Daily Weather History Graph

Daily Weather History Graph

Search for Another Location

Airport or City:

Astronomy

Aug. 29, 2019 Rise Set
Actual Time 7:06 AM EDT 8:05 PM EDT
Civil Twilight 6:40 AM EDT 8:31 PM EDT
Nautical Twilight 6:10 AM EDT 9:01 PM EDT
Astronomical Twilight 5:38 AM EDT 9:33 PM EDT
Moon 5:56 AM EDT (8/29) 7:57 PM EDT (8/29)
Length of Visible Light 13h 50m
Length of Day
12h 59m
Waning Crescent, 1% of the Moon is Illuminated
Aug 29
Waning Crescent
Aug 30
New
Sep 5
First Quarter
Sep 14
Full
Sep 21
Last Quarter

Hourly Weather History & Observations

Time (EDT) Temp. Heat Index Dew Point Humidity Pressure Visibility Wind Dir Wind Speed Gust Speed Precip Events Conditions
12:53 AM 70.0 °F - 62.1 °F 76% 30.02 in 10.0 mi NNW 4.6 mph - N/A   Clear
1:53 AM 70.0 °F - 61.0 °F 73% 30.01 in 10.0 mi NNW 5.8 mph - N/A   Clear
2:53 AM 68.0 °F - 60.1 °F 76% 30.00 in 10.0 mi NNW 5.8 mph - N/A   Clear
3:53 AM 66.0 °F - 61.0 °F 84% 29.99 in 10.0 mi Calm Calm - N/A   Clear
4:53 AM 63.0 °F - 60.1 °F 90% 30.01 in 10.0 mi Calm Calm - N/A   Clear
5:53 AM 64.0 °F - 60.1 °F 87% 30.02 in 10.0 mi Calm Calm - N/A   Clear
6:53 AM 62.1 °F - 59.0 °F 90% 30.04 in 10.0 mi Calm Calm - N/A   Clear
7:53 AM 63.0 °F - 61.0 °F 93% 30.06 in 10.0 mi Calm Calm - N/A   Clear
8:53 AM 70.0 °F - 62.1 °F 76% 30.08 in 10.0 mi North 4.6 mph - 0.00 in Rain Light Rain
9:53 AM 73.9 °F - 57.9 °F 57% 30.09 in 10.0 mi NE 6.9 mph - 0.00 in   Clear
10:53 AM 77.0 °F - 57.9 °F 52% 30.10 in 10.0 mi East 5.8 mph - N/A   Clear
11:53 AM 79.0 °F - 57.9 °F 48% 30.10 in 10.0 mi East 5.8 mph - N/A   Clear
12:53 PM 81.0 °F 81.0 °F 57.0 °F 44% 30.09 in 10.0 mi North - - N/A   Clear
1:53 PM 82.9 °F 82.4 °F 57.0 °F 41% 30.08 in 10.0 mi Calm Calm - N/A   Clear
2:53 PM 82.0 °F 81.7 °F 57.0 °F 42% 30.06 in 10.0 mi East 8.1 mph - N/A   Clear
3:53 PM 82.9 °F 82.0 °F 55.0 °F 38% 30.05 in 10.0 mi WSW 4.6 mph - N/A   Clear
4:53 PM 84.0 °F 83.3 °F 57.0 °F 40% 30.04 in 10.0 mi Variable 5.8 mph - N/A   Clear
5:53 PM 84.0 °F 83.3 °F 57.0 °F 40% 30.04 in 10.0 mi East 4.6 mph - N/A   Clear
6:53 PM 84.0 °F 82.9 °F 55.0 °F 37% 30.04 in 10.0 mi WNW 5.8 mph - N/A   Clear
7:53 PM 79.0 °F - 54.0 °F 42% 30.05 in 10.0 mi Calm Calm - N/A   Clear
8:53 PM 73.9 °F - 60.1 °F 62% 30.06 in 10.0 mi Calm Calm - N/A   Clear
9:53 PM 75.0 °F - 60.1 °F 60% 30.06 in 10.0 mi SSE 3.5 mph - N/A   Clear
10:53 PM 73.0 °F - 61.0 °F 66% 30.08 in 10.0 mi Calm Calm - N/A   Clear
11:53 PM 70.0 °F - 63.0 °F 78% 30.09 in 10.0 mi Calm Calm - N/A   Clear